Time,TemperatureF,DewpointF,PressureIn,WindDirection,WindDirectionDegrees,WindSpeedMPH,WindSpeedGustMPH,Humidity,HourlyPrecipIn,Conditions,Clouds,dailyrainin,SolarRadiationWatts/m^2,SoftwareType,DateUTC
2013-03-20 00:03:00,26.7,20.5,30.33,NW,315,7.5,13.8,77,0.00,RA,,0.00,0.0,WeatherDisplay:10.37,2013-03-20 05:03:00,
2013-03-20 00:08:00,26.2,20.0,30.33,NW,320,4.8,9.2,77,0.00,CLR,,0.00,0.0,WeatherDisplay:10.37,2013-03-20 05:08:00,
2013-03-20 00:14:00,25.8,19.6,30.33,NNW,340,3.6,9.2,77,0.00,BKN,,0.00,0.0,WeatherDisplay:10.37,2013-03-20 05:14:00,
2013-03-20 00:19:00,25.4,19.5,30.33,WNW,298,3.5,9.2,78,0.00,BKN,,0.00,0.0,WeatherDisplay:10.37,2013-03-20 05:19:00,
2013-03-20 00:24:00,25.2,19.3,30.33,NNW,347,3.3,6.0,78,0.00,BKN,,0.00,0.0,WeatherDisplay:10.37,2013-03-20 05:24:00,
2013-03-20 00:29:00,24.9,19.0,30.33,North,5,4.2,9.0,78,0.00,BKN,,0.00,0.0,WeatherDisplay:10.37,2013-03-20 05:29:00,
2013-03-20 00:35:00,24.7,18.8,30.33,NW,321,4.7,6.9,78,0.00,BKN,,0.00,0.0,WeatherDisplay:10.37,2013-03-20 05:35:00,
2013-03-20 00:40:00,24.5,18.6,30.34,NW,317,4.2,8.1,78,0.00,BKN,,0.00,0.0,WeatherDisplay:10.37,2013-03-20 05:40:00,
2013-03-20 00:45:00,24.3,18.1,30.33,WNW,302,5.5,13.0,77,0.00,BKN,,0.00,0.0,WeatherDisplay:10.37,2013-03-20 05:45:00,
2013-03-20 00:50:00,24.1,17.9,30.34,North,351,6.4,11.0,77,0.00,BKN,,0.00,0.0,WeatherDisplay:10.37,2013-03-20 05:50:00,
2013-03-20 00:56:00,23.9,17.4,30.34,West,276,6.2,12.7,76,0.00,BKN,,0.00,0.0,WeatherDisplay:10.37,2013-03-20 05:56:00,
2013-03-20 01:01:00,23.7,17.2,30.35,WNW,289,6.7,12.7,76,0.00,BKN,,0.00,0.0,WeatherDisplay:10.37,2013-03-20 06:01:00,
2013-03-20 01:06:00,23.4,16.6,30.35,NW,311,3.8,12.7,75,0.00,BKN,,0.00,0.0,WeatherDisplay:10.37,2013-03-20 06:06:00,
2013-03-20 01:11:00,23.2,16.4,30.35,WNW,290,3.5,10.4,75,0.00,BKN,,0.00,0.0,WeatherDisplay:10.37,2013-03-20 06:11:00,
2013-03-20 01:17:00,23.2,16.8,30.35,NW,315,7.8,13.0,76,0.00,BKN,,0.00,0.0,WeatherDisplay:10.37,2013-03-20 06:17:00,
2013-03-20 01:22:00,22.9,15.8,30.35,NW,313,6.7,12.7,74,0.00,BKN,,0.00,0.0,WeatherDisplay:10.37,2013-03-20 06:22:00,
2013-03-20 01:27:00,22.7,16.0,30.35,WNW,303,3.8,8.0,75,0.00,BKN,,0.00,0.0,WeatherDisplay:10.37,2013-03-20 06:27:00,
2013-03-20 01:32:00,22.4,15.4,30.36,NW,315,5.2,11.5,74,0.00,BKN,,0.00,0.0,WeatherDisplay:10.37,2013-03-20 06:32:00,
2013-03-20 01:38:00,22.2,15.5,30.36,NW,309,6.6,10.4,75,0.00,BKN,,0.00,0.0,WeatherDisplay:10.37,2013-03-20 06:38:00,
2013-03-20 01:43:00,22.1,15.1,30.36,West,280,4.3,11.5,74,0.00,BKN,,0.00,0.0,WeatherDisplay:10.37,2013-03-20 06:43:00,
2013-03-20 01:48:00,22.1,15.1,30.36,NNW,339,5.9,11.5,74,0.00,BKN,,0.00,0.0,WeatherDisplay:10.37,2013-03-20 06:48:00,
2013-03-20 01:53:00,22.0,15.3,30.36,West,276,2.3,15.0,75,0.00,BKN,,0.00,0.0,WeatherDisplay:10.37,2013-03-20 06:53:00,
2013-03-20 01:59:00,22.0,15.3,30.36,NW,326,2.5,4.0,75,0.00,BKN,,0.00,0.0,WeatherDisplay:10.37,2013-03-20 06:59:00,
2013-03-20 02:04:00,22.0,15.3,30.36,West,274,2.9,4.0,75,0.00,BKN,,0.00,0.0,WeatherDisplay:10.37,2013-03-20 07:04:00,
2013-03-20 02:09:00,22.0,15.3,30.36,WNW,288,1.9,4.6,75,0.00,BKN,,0.00,0.0,WeatherDisplay:10.37,2013-03-20 07:09:00,
2013-03-20 02:14:00,22.0,15.3,30.36,West,271,3.5,6.0,75,0.00,BKN,,0.00,0.0,WeatherDisplay:10.37,2013-03-20 07:14:00,
2013-03-20 02:20:00,22.0,15.0,30.36,NNW,328,3.5,6.0,74,0.00,BKN,,0.00,0.0,WeatherDisplay:10.37,2013-03-20 07:20:00,
2013-03-20 02:25:00,22.0,15.0,30.36,WNW,288,3.1,8.1,74,0.00,BKN,,0.00,0.0,WeatherDisplay:10.37,2013-03-20 07:25:00,
2013-03-20 02:30:00,21.8,15.1,30.36,WSW,256,3.5,8.1,75,0.00,BKN,,0.00,0.0,WeatherDisplay:10.37,2013-03-20 07:30:00,
2013-03-20 02:35:00,21.8,15.1,30.36,WNW,296,4.1,10.0,75,0.00,BKN,,0.00,0.0,WeatherDisplay:10.37,2013-03-20 07:35:00,
2013-03-20 02:41:00,21.7,15.0,30.36,WNW,298,5.4,9.2,75,0.00,BKN,,0.00,0.0,WeatherDisplay:10.37,2013-03-20 07:41:00,
2013-03-20 02:46:00,21.6,15.2,30.36,NW,323,5.0,9.2,76,0.00,BKN,,0.00,0.0,WeatherDisplay:10.37,2013-03-20 07:46:00,
2013-03-20 02:51:00,21.7,15.3,30.36,WNW,288,4.5,9.2,76,0.00,BKN,,0.00,0.0,WeatherDisplay:10.37,2013-03-20 07:51:00,
2013-03-20 02:57:00,21.7,15.9,30.36,WNW,290,5.0,13.0,78,0.00,BKN,BKN,0.00,0.0,WeatherDisplay:10.37,2013-03-20 07:57:00,
2013-03-20 03:02:00,21.8,16.3,30.36,WSW,254,5.9,10.0,79,0.00,BKN,,0.00,0.0,WeatherDisplay:10.37,2013-03-20 08:02:00,
2013-03-20 03:07:00,22.0,16.8,30.36,WNW,296,8.6,17.0,80,0.00,BKN,,0.00,0.0,WeatherDisplay:10.37,2013-03-20 08:07:00,
2013-03-20 03:12:00,22.0,16.5,30.36,West,281,10.4,16.1,79,0.00,BKN,,0.00,0.0,WeatherDisplay:10.37,2013-03-20 08:12:00,
2013-03-20 03:17:00,21.8,16.3,30.36,NNW,329,9.1,14.0,79,0.00,BKN,,0.00,0.0,WeatherDisplay:10.37,2013-03-20 08:17:00,
2013-03-20 03:23:00,21.6,15.8,30.36,West,267,6.5,15.0,78,0.00,BKN,,0.00,0.0,WeatherDisplay:10.37,2013-03-20 08:23:00,
2013-03-20 03:28:00,21.6,15.2,30.36,NNW,333,5.1,14.0,76,0.00,BKN,,0.00,0.0,WeatherDisplay:10.37,2013-03-20 08:28:00,
2013-03-20 03:33:00,21.7,15.0,30.36,West,268,4.3,9.2,75,0.00,BKN,,0.00,0.0,WeatherDisplay:10.37,2013-03-20 08:33:00,
2013-03-20 03:38:00,21.5,14.5,30.36,West,275,8.3,11.5,74,0.00,BKN,,0.00,0.0,WeatherDisplay:10.37,2013-03-20 08:38:00,
2013-03-20 03:44:00,21.2,14.5,30.36,WNW,292,7.5,15.0,75,0.00,BKN,,0.00,0.0,WeatherDisplay:10.37,2013-03-20 08:44:00,
2013-03-20 03:49:00,21.1,14.7,30.36,WNW,289,12.2,17.3,76,0.00,BKN,,0.00,0.0,WeatherDisplay:10.37,2013-03-20 08:49:00,
2013-03-20 03:54:00,20.8,14.7,30.36,West,277,5.1,12.7,77,0.00,BKN,,0.00,0.0,WeatherDisplay:10.37,2013-03-20 08:54:00,
2013-03-20 03:59:00,20.8,15.0,30.36,WSW,244,7.5,13.8,78,0.00,BKN,,0.00,0.0,WeatherDisplay:10.37,2013-03-20 08:59:00,
2013-03-20 04:05:00,20.6,15.1,30.36,WNW,288,7.7,17.3,79,0.00,BKN,,0.00,0.0,WeatherDisplay:10.37,2013-03-20 09:05:00,
2013-03-20 04:10:00,20.4,15.2,30.36,NNW,331,9.1,19.6,80,0.00,BKN,,0.00,0.0,WeatherDisplay:10.37,2013-03-20 09:10:00,
2013-03-20 04:15:00,20.2,15.0,30.36,WNW,284,6.7,11.5,80,0.00,BKN,,0.00,0.0,WeatherDisplay:10.37,2013-03-20 09:15:00,
2013-03-20 04:20:00,20.2,15.0,30.36,WNW,290,7.4,15.0,80,0.00,BKN,,0.00,0.0,WeatherDisplay:10.37,2013-03-20 09:20:00,
2013-03-20 04:26:00,20.2,14.7,30.36,West,269,7.9,13.0,79,0.00,BKN,,0.00,0.0,WeatherDisplay:10.37,2013-03-20 09:26:00,
2013-03-20 04:31:00,20.2,14.4,30.36,WNW,303,7.2,11.5,78,0.00,BKN,,0.00,0.0,WeatherDisplay:10.37,2013-03-20 09:31:00,
2013-03-20 04:37:00,20.3,14.2,30.36,WNW,285,5.0,16.0,77,0.00,BKN,BKN,0.00,0.0,WeatherDisplay:10.37,2013-03-20 09:37:00,
2013-03-20 04:41:00,20.3,13.4,30.36,WNW,284,10.0,21.0,74,0.00,BKN,BKN,0.00,0.0,WeatherDisplay:10.37,2013-03-20 09:41:00,
2013-03-20 04:46:00,20.2,13.3,30.37,WNW,288,6.0,21.0,74,0.00,BKN,BKN,0.00,0.0,WeatherDisplay:10.37,2013-03-20 09:46:00,
2013-03-20 04:52:00,20.2,12.6,30.37,WNW,288,9.0,18.0,72,0.00,BKN,BKN,0.00,0.0,WeatherDisplay:10.37,2013-03-20 09:52:00,
2013-03-20 04:57:00,20.2,12.3,30.36,WNW,303,8.9,16.1,71,0.00,BKN,,0.00,0.0,WeatherDisplay:10.37,2013-03-20 09:57:00,
2013-03-20 05:02:00,20.1,12.2,30.37,WNW,298,8.2,17.3,71,0.00,BKN,,0.00,0.0,WeatherDisplay:10.37,2013-03-20 10:02:00,
2013-03-20 05:07:00,20.1,12.5,30.36,West,277,4.9,9.2,72,0.00,BKN,,0.00,0.0,WeatherDisplay:10.37,2013-03-20 10:07:00,
2013-03-20 05:12:00,20.2,12.9,30.37,West,273,8.2,10.0,73,0.00,BKN,,0.00,0.0,WeatherDisplay:10.37,2013-03-20 10:12:00,
2013-03-20 05:18:00,20.2,13.2,30.37,WNW,295,6.9,12.7,74,0.00,BKN,,0.00,0.0,WeatherDisplay:10.37,2013-03-20 10:18:00,
2013-03-20 05:23:00,20.2,13.5,30.37,West,275,4.7,8.1,75,0.00,BKN,,0.00,0.0,WeatherDisplay:10.37,2013-03-20 10:23:00,
2013-03-20 05:28:00,20.1,13.7,30.37,West,267,11.1,17.3,76,0.00,BKN,,0.00,0.0,WeatherDisplay:10.37,2013-03-20 10:28:00,
2013-03-20 05:33:00,19.7,11.8,30.37,NW,315,9.9,17.3,71,0.00,BKN,,0.00,0.0,WeatherDisplay:10.37,2013-03-20 10:33:00,
2013-03-20 05:39:00,19.5,11.3,30.37,West,260,7.5,11.0,70,0.00,BKN,,0.00,0.0,WeatherDisplay:10.37,2013-03-20 10:39:00,
2013-03-20 05:44:00,19.4,11.2,30.38,West,259,6.2,9.2,70,0.00,BKN,,0.00,0.0,WeatherDisplay:10.37,2013-03-20 10:44:00,
2013-03-20 05:49:00,19.3,11.4,30.38,WNW,297,3.3,13.8,71,0.00,BKN,,0.00,0.0,WeatherDisplay:10.37,2013-03-20 10:49:00,
2013-03-20 05:54:00,19.2,11.6,30.38,WNW,298,3.8,8.0,72,0.00,BKN,,0.00,0.0,WeatherDisplay:10.37,2013-03-20 10:54:00,
2013-03-20 06:00:00,19.1,11.6,30.38,WNW,293,5.4,17.3,72,0.00,BKN,,0.00,0.0,WeatherDisplay:10.37,2013-03-20 11:00:00,
2013-03-20 06:05:00,18.9,11.4,30.38,West,265,6.8,16.1,72,0.00,BKN,,0.00,0.0,WeatherDisplay:10.37,2013-03-20 11:05:00,
2013-03-20 06:10:00,18.9,11.7,30.38,West,278,6.4,11.5,73,0.00,BKN,,0.00,0.0,WeatherDisplay:10.37,2013-03-20 11:10:00,
2013-03-20 06:15:00,18.8,11.6,30.39,WNW,286,10.3,17.0,73,0.00,BKN,,0.00,0.0,WeatherDisplay:10.37,2013-03-20 11:15:00,
2013-03-20 06:21:00,18.7,12.7,30.39,WNW,296,9.6,16.1,77,0.00,BKN,,0.00,0.0,WeatherDisplay:10.37,2013-03-20 11:21:00,
2013-03-20 06:26:00,18.2,12.8,30.39,WNW,285,9.2,15.0,79,0.00,BKN,,0.00,0.0,WeatherDisplay:10.37,2013-03-20 11:26:00,
2013-03-20 06:31:00,17.9,11.6,30.40,WNW,287,9.6,14.0,76,0.00,BKN,,0.00,0.0,WeatherDisplay:10.37,2013-03-20 11:31:00,
2013-03-20 06:36:00,17.6,11.0,30.40,West,263,6.4,10.0,75,0.00,BKN,,0.00,0.0,WeatherDisplay:10.37,2013-03-20 11:36:00,
2013-03-20 06:42:00,17.3,10.4,30.40,WNW,286,7.0,21.0,74,0.00,BKN,BKN,0.00,0.0,WeatherDisplay:10.37,2013-03-20 11:42:00,
2013-03-20 06:47:00,17.1,10.2,30.40,West,275,8.0,21.0,74,0.00,BKN,BKN,0.00,0.0,WeatherDisplay:10.37,2013-03-20 11:47:00,
2013-03-20 06:51:00,17.0,10.1,30.40,WNW,284,12.0,20.0,74,0.00,BKN,BKN,0.00,0.0,WeatherDisplay:10.37,2013-03-20 11:51:00,
2013-03-20 06:56:00,16.9,10.0,30.41,WNW,288,10.0,15.0,74,0.00,BKN,BKN,0.00,0.0,WeatherDisplay:10.37,2013-03-20 11:56:00,
2013-03-20 07:02:00,16.8,9.6,30.41,WNW,294,10.0,20.0,73,0.00,BKN,BKN,0.00,0.0,WeatherDisplay:10.37,2013-03-20 12:02:00,
2013-03-20 07:07:00,16.6,8.8,30.41,West,264,3.2,6.9,71,0.00,BKN,,0.00,0.0,WeatherDisplay:10.37,2013-03-20 12:07:00,
2013-03-20 07:11:00,16.5,8.7,30.41,WNW,283,7.0,14.0,71,0.00,BKN,BKN,0.00,0.0,WeatherDisplay:10.37,2013-03-20 12:11:00,
2013-03-20 07:17:00,16.3,8.2,30.41,West,277,6.0,15.0,70,0.00,BKN,BKN,0.00,0.0,WeatherDisplay:10.37,2013-03-20 12:17:00,
2013-03-20 07:22:00,16.2,7.8,30.42,West,267,7.0,14.0,69,0.00,BKN,BKN,0.00,7.0,WeatherDisplay:10.37,2013-03-20 12:22:00,
2013-03-20 07:27:00,16.1,7.7,30.42,West,280,8.0,20.0,69,0.00,BKN,BKN,0.00,9.8,WeatherDisplay:10.37,2013-03-20 12:27:00,
2013-03-20 07:32:00,16.0,7.6,30.42,NNW,328,6.8,11.0,69,0.00,BKN,,0.00,15.4,WeatherDisplay:10.37,2013-03-20 12:32:00,
2013-03-20 07:37:00,15.9,7.5,30.42,West,280,4.1,9.2,69,0.00,BKN,,0.00,16.8,WeatherDisplay:10.37,2013-03-20 12:37:00,
2013-03-20 07:42:00,15.9,7.2,30.42,WNW,298,7.0,12.7,68,0.00,BKN,,0.00,22.4,WeatherDisplay:10.37,2013-03-20 12:42:00,
2013-03-20 07:47:00,15.9,6.9,30.42,West,270,9.8,15.0,67,0.00,BKN,,0.00,25.2,WeatherDisplay:10.37,2013-03-20 12:47:00,
2013-03-20 07:53:00,15.9,6.5,30.42,WSW,242,7.9,12.0,66,0.00,BKN,,0.00,29.4,WeatherDisplay:10.37,2013-03-20 12:53:00,
2013-03-20 07:58:00,16.0,6.6,30.42,West,261,4.1,7.0,66,0.00,BKN,,0.00,46.2,WeatherDisplay:10.37,2013-03-20 12:58:00,
2013-03-20 08:03:00,16.1,6.7,30.41,NW,305,4.2,8.0,66,0.00,BKN,,0.00,44.8,WeatherDisplay:10.37,2013-03-20 13:03:00,
2013-03-20 08:08:00,16.3,6.9,30.41,West,268,4.2,11.5,66,0.00,BKN,,0.00,36.4,WeatherDisplay:10.37,2013-03-20 13:08:00,
2013-03-20 08:14:00,16.4,7.3,30.42,West,271,5.8,10.4,67,0.00,BKN,,0.00,44.8,WeatherDisplay:10.37,2013-03-20 13:14:00,
2013-03-20 08:19:00,16.6,7.5,30.41,WSW,257,3.4,6.9,67,0.00,BKN,,0.00,46.2,WeatherDisplay:10.37,2013-03-20 13:19:00,
2013-03-20 08:24:00,16.8,7.7,30.41,WNW,286,6.8,13.8,67,0.00,BKN,,0.00,51.8,WeatherDisplay:10.37,2013-03-20 13:24:00,
2013-03-20 08:30:00,16.9,7.8,30.41,West,272,6.2,14.0,67,0.00,BKN,,0.00,46.2,WeatherDisplay:10.37,2013-03-20 13:30:00,
2013-03-20 08:35:00,17.0,6.9,30.42,West,277,10.1,15.0,64,0.00,BKN,,0.00,46.2,WeatherDisplay:10.37,2013-03-20 13:35:00,
2013-03-20 08:40:00,17.1,7.0,30.42,WSW,238,8.4,18.0,64,0.00,BKN,,0.00,49.0,WeatherDisplay:10.37,2013-03-20 13:40:00,
2013-03-20 08:45:00,17.2,7.1,30.42,NNW,330,8.3,15.0,64,0.00,BKN,,0.00,100.8,WeatherDisplay:10.37,2013-03-20 13:45:00,
2013-03-20 08:51:00,17.4,7.6,30.42,West,267,5.5,11.0,65,0.00,BKN,,0.00,71.4,WeatherDisplay:10.37,2013-03-20 13:51:00,
2013-03-20 08:56:00,17.6,7.1,30.41,WNW,291,7.6,15.0,63,0.00,BKN,,0.00,107.8,WeatherDisplay:10.37,2013-03-20 13:56:00,
2013-03-20 09:01:00,17.5,7.0,30.42,West,269,6.8,19.6,63,0.00,BKN,,0.00,54.6,WeatherDisplay:10.37,2013-03-20 14:01:00,
2013-03-20 09:07:00,17.7,6.9,30.41,WNW,282,13.0,22.0,62,0.00,BKN,BKN,0.00,117.6,WeatherDisplay:10.37,2013-03-20 14:07:00,
2013-03-20 09:12:00,17.8,7.0,30.41,NW,314,6.6,20.0,62,0.00,BKN,,0.00,282.8,WeatherDisplay:10.37,2013-03-20 14:12:00,
2013-03-20 09:17:00,18.1,7.6,30.41,West,271,9.2,13.8,63,0.00,BKN,,0.00,133.0,WeatherDisplay:10.37,2013-03-20 14:17:00,
2013-03-20 09:22:00,18.5,7.6,30.40,WSW,249,9.7,19.6,62,0.00,BKN,,0.00,58.8,WeatherDisplay:10.37,2013-03-20 14:22:00,
2013-03-20 09:27:00,18.6,7.4,30.40,WSW,248,7.8,16.1,61,0.00,BKN,,0.00,61.6,WeatherDisplay:10.37,2013-03-20 14:27:00,
2013-03-20 09:33:00,18.8,7.6,30.40,WSW,242,7.9,18.0,61,0.00,BKN,,0.00,253.4,WeatherDisplay:10.37,2013-03-20 14:33:00,
2013-03-20 09:38:00,19.0,8.1,30.41,NW,306,5.3,11.5,62,0.00,BKN,,0.00,61.6,WeatherDisplay:10.37,2013-03-20 14:38:00,
2013-03-20 09:43:00,19.0,7.7,30.41,West,273,8.8,16.1,61,0.00,BKN,,0.00,162.4,WeatherDisplay:10.37,2013-03-20 14:43:00,
2013-03-20 09:48:00,19.2,7.6,30.40,West,281,7.9,11.5,60,0.00,BKN,,0.00,331.8,WeatherDisplay:10.37,2013-03-20 14:48:00,
2013-03-20 09:54:00,19.3,7.7,30.40,West,275,5.5,16.1,60,0.00,BKN,,0.00,226.8,WeatherDisplay:10.37,2013-03-20 14:54:00,
2013-03-20 09:59:00,19.6,8.0,30.40,West,279,12.0,17.3,60,0.00,BKN,,0.00,211.4,WeatherDisplay:10.37,2013-03-20 14:59:00,
2013-03-20 10:04:00,19.6,8.0,30.40,NNW,331,8.9,16.0,60,0.00,BKN,,0.00,177.8,WeatherDisplay:10.37,2013-03-20 15:04:00,
2013-03-20 10:09:00,20.0,8.0,30.40,West,281,6.6,12.7,59,0.00,BKN,,0.00,406.0,WeatherDisplay:10.37,2013-03-20 15:09:00,
2013-03-20 10:15:00,20.2,7.8,30.41,WNW,302,9.0,13.0,58,0.00,BKN,,0.00,379.4,WeatherDisplay:10.37,2013-03-20 15:15:00,
2013-03-20 10:20:00,20.6,7.8,30.41,West,276,6.1,15.0,57,0.00,BKN,,0.00,497.0,WeatherDisplay:10.37,2013-03-20 15:20:00,
2013-03-20 10:25:00,20.8,7.6,30.41,West,279,8.3,17.3,56,0.00,BKN,,0.00,366.8,WeatherDisplay:10.37,2013-03-20 15:25:00,
2013-03-20 10:30:00,20.8,6.7,30.41,WNW,290,7.6,15.0,54,0.00,BKN,,0.00,526.4,WeatherDisplay:10.37,2013-03-20 15:30:00,
2013-03-20 10:36:00,21.2,7.5,30.41,West,273,9.7,12.7,55,0.00,BKN,,0.00,259.0,WeatherDisplay:10.37,2013-03-20 15:36:00,
2013-03-20 10:41:00,21.6,7.5,30.41,WNW,286,10.6,14.0,54,0.00,BKN,,0.00,760.2,WeatherDisplay:10.37,2013-03-20 15:41:00,
2013-03-20 10:46:00,21.5,7.4,30.41,WSW,258,9.1,19.6,54,0.00,BKN,,0.00,425.6,WeatherDisplay:10.37,2013-03-20 15:46:00,
2013-03-20 10:51:00,21.5,7.0,30.41,West,279,12.6,18.4,53,0.00,BKN,,0.00,788.2,WeatherDisplay:10.37,2013-03-20 15:51:00,
2013-03-20 10:56:00,21.2,6.7,30.40,WNW,289,7.5,15.0,53,0.00,BKN,,0.00,802.2,WeatherDisplay:10.37,2013-03-20 15:56:00,
2013-03-20 11:02:00,21.6,7.1,30.41,NW,309,13.4,23.0,53,0.00,BKN,,0.00,716.8,WeatherDisplay:10.37,2013-03-20 16:02:00,
2013-03-20 11:07:00,22.4,7.8,30.41,WNW,299,10.6,17.3,53,0.00,BKN,,0.00,624.4,WeatherDisplay:10.37,2013-03-20 16:07:00,
2013-03-20 11:12:00,22.4,7.8,30.41,WNW,288,11.1,18.4,53,0.00,BKN,,0.00,753.2,WeatherDisplay:10.37,2013-03-20 16:12:00,
2013-03-20 11:18:00,23.1,8.9,30.41,SW,225,5.2,9.0,54,0.00,BKN,,0.00,1031.8,WeatherDisplay:10.37,2013-03-20 16:18:00,
2013-03-20 11:23:00,23.0,8.4,30.41,West,281,8.5,11.5,53,0.00,BKN,,0.00,1052.8,WeatherDisplay:10.37,2013-03-20 16:23:00,
2013-03-20 11:28:00,22.6,7.6,30.40,WNW,292,7.7,12.7,52,0.00,BKN,,0.00,1136.8,WeatherDisplay:10.37,2013-03-20 16:28:00,
2013-03-20 11:33:00,22.9,7.9,30.41,WNW,290,9.5,18.4,52,0.00,BKN,,0.00,1152.2,WeatherDisplay:10.37,2013-03-20 16:33:00,
2013-03-20 11:39:00,23.3,7.8,30.40,NW,321,13.2,23.0,51,0.00,BKN,,0.00,487.2,WeatherDisplay:10.37,2013-03-20 16:39:00,
2013-03-20 11:44:00,23.3,7.4,30.40,NW,321,10.2,17.3,50,0.00,BKN,,0.00,1253.0,WeatherDisplay:10.37,2013-03-20 16:44:00,
2013-03-20 11:49:00,22.7,7.7,30.40,West,278,10.8,18.0,52,0.00,BKN,,0.00,1176.0,WeatherDisplay:10.37,2013-03-20 16:49:00,
2013-03-20 11:54:00,23.5,8.4,30.39,West,277,9.1,17.3,52,0.00,BKN,,0.00,1104.6,WeatherDisplay:10.37,2013-03-20 16:54:00,
2013-03-20 12:00:00,24.0,9.3,30.39,WNW,294,10.1,15.0,53,0.00,BKN,,0.00,1129.8,WeatherDisplay:10.37,2013-03-20 17:00:00,
2013-03-20 12:05:00,24.0,8.9,30.39,WNW,292,10.1,14.0,52,0.00,BKN,,0.00,1132.6,WeatherDisplay:10.37,2013-03-20 17:05:00,
2013-03-20 12:10:00,24.0,8.9,30.39,West,276,11.2,17.3,52,0.00,BKN,,0.00,1213.8,WeatherDisplay:10.37,2013-03-20 17:10:00,
2013-03-20 12:15:00,23.6,8.9,30.39,NW,306,4.3,21.9,53,0.00,BKN,,0.00,1304.8,WeatherDisplay:10.37,2013-03-20 17:15:00,
2013-03-20 12:21:00,23.9,8.4,30.39,NNW,327,10.2,16.1,51,0.00,BKN,,0.00,1195.6,WeatherDisplay:10.37,2013-03-20 17:21:00,
2013-03-20 12:26:00,24.8,10.5,30.39,WNW,294,12.6,23.0,54,0.00,BKN,,0.00,1085.0,WeatherDisplay:10.37,2013-03-20 17:26:00,
2013-03-20 12:31:00,24.8,9.2,30.38,NW,313,10.2,17.3,51,0.00,BKN,,0.00,1220.8,WeatherDisplay:10.37,2013-03-20 17:31:00,
2013-03-20 12:36:00,24.3,8.7,30.38,SW,234,8.3,17.3,51,0.00,BKN,,0.00,1220.8,WeatherDisplay:10.37,2013-03-20 17:36:00,
2013-03-20 12:42:00,23.9,8.8,30.38,WNW,285,8.0,21.0,52,0.00,BKN,BKN,0.00,1334.2,WeatherDisplay:10.37,2013-03-20 17:42:00,
2013-03-20 12:47:00,23.9,8.8,30.37,West,271,9.3,19.0,52,0.00,BKN,,0.00,337.4,WeatherDisplay:10.37,2013-03-20 17:47:00,
2013-03-20 12:52:00,24.3,10.0,30.37,West,266,7.6,15.0,54,0.00,BKN,,0.00,1279.6,WeatherDisplay:10.37,2013-03-20 17:52:00,
2013-03-20 12:57:00,25.6,11.7,30.37,West,261,3.2,9.2,55,0.00,BKN,,0.00,1265.6,WeatherDisplay:10.37,2013-03-20 17:57:00,
2013-03-20 13:03:00,25.8,11.4,30.36,WNW,285,6.7,20.0,54,0.00,BKN,,0.00,1211.0,WeatherDisplay:10.37,2013-03-20 18:03:00,
2013-03-20 13:08:00,25.2,10.4,30.37,WNW,288,8.3,11.5,53,0.00,BKN,,0.00,1325.8,WeatherDisplay:10.37,2013-03-20 18:08:00,
2013-03-20 13:13:00,25.2,9.6,30.36,WNW,294,5.1,11.5,51,0.00,BKN,,0.00,1269.8,WeatherDisplay:10.37,2013-03-20 18:13:00,
2013-03-20 13:18:00,26.2,10.9,30.36,West,274,6.0,11.5,52,0.00,BKN,,0.00,1227.8,WeatherDisplay:10.37,2013-03-20 18:18:00,
2013-03-20 13:24:00,26.1,10.4,30.36,NW,326,3.4,8.1,51,0.00,BKN,,0.00,268.8,WeatherDisplay:10.37,2013-03-20 18:24:00,
2013-03-20 13:29:00,26.1,10.9,30.36,West,266,9.4,16.0,52,0.00,BKN,,0.00,1213.8,WeatherDisplay:10.37,2013-03-20 18:29:00,
2013-03-20 13:34:00,25.8,10.1,30.36,West,263,6.7,13.8,51,0.00,BKN,,0.00,1324.4,WeatherDisplay:10.37,2013-03-20 18:34:00,
2013-03-20 13:39:00,26.4,11.1,30.36,WNW,290,6.7,15.0,52,0.00,BKN,,0.00,1260.0,WeatherDisplay:10.37,2013-03-20 18:39:00,
2013-03-20 13:45:00,26.7,11.0,30.35,WNW,302,10.0,19.6,51,0.00,BKN,,0.00,422.8,WeatherDisplay:10.37,2013-03-20 18:45:00,
2013-03-20 13:50:00,26.0,11.6,30.35,SSW,198,4.2,9.0,54,0.00,BKN,,0.00,1220.8,WeatherDisplay:10.37,2013-03-20 18:50:00,
2013-03-20 13:55:00,26.5,10.3,30.34,WSW,246,11.4,19.6,50,0.00,BKN,,0.00,1191.4,WeatherDisplay:10.37,2013-03-20 18:55:00,
2013-03-20 14:00:00,25.6,10.8,30.34,WNW,290,8.8,15.0,53,0.00,BKN,,0.00,1244.6,WeatherDisplay:10.37,2013-03-20 19:00:00,
2013-03-20 14:06:00,26.8,11.9,30.34,WNW,288,6.3,12.7,53,0.00,BKN,,0.00,1211.0,WeatherDisplay:10.37,2013-03-20 19:06:00,
2013-03-20 14:11:00,27.0,12.5,30.34,West,279,5.2,13.8,54,0.00,BKN,,0.00,1237.6,WeatherDisplay:10.37,2013-03-20 19:11:00,
2013-03-20 14:17:00,27.5,12.1,30.34,West,261,10.0,16.0,52,0.00,BKN,BKN,0.00,1289.4,WeatherDisplay:10.37,2013-03-20 19:17:00,
2013-03-20 14:22:00,26.3,11.0,30.33,West,280,8.9,19.6,52,0.00,BKN,,0.00,1387.4,WeatherDisplay:10.37,2013-03-20 19:22:00,
2013-03-20 14:27:00,26.5,11.2,30.33,West,275,10.0,18.0,52,0.00,BKN,BKN,0.00,315.0,WeatherDisplay:10.37,2013-03-20 19:27:00,
2013-03-20 14:32:00,26.9,12.0,30.33,West,267,5.0,15.0,53,0.00,BKN,BKN,0.00,315.0,WeatherDisplay:10.37,2013-03-20 19:32:00,
2013-03-20 14:37:00,26.9,12.0,30.32,WNW,303,12.2,20.0,53,0.00,BKN,,0.00,1486.8,WeatherDisplay:10.37,2013-03-20 19:37:00,
2013-03-20 14:42:00,26.0,11.6,30.33,WSW,246,7.2,13.8,54,0.00,BKN,,0.00,1279.6,WeatherDisplay:10.37,2013-03-20 19:42:00,
2013-03-20 14:47:00,26.6,12.2,30.32,WNW,282,3.0,6.9,54,0.00,BKN,,0.00,1198.4,WeatherDisplay:10.37,2013-03-20 19:47:00,
2013-03-20 14:52:00,27.0,13.0,30.32,WSW,254,6.8,13.0,55,0.00,BKN,,0.00,379.4,WeatherDisplay:10.37,2013-03-20 19:52:00,
2013-03-20 14:57:00,27.1,13.1,30.32,West,267,4.8,17.3,55,0.00,BKN,,0.00,403.2,WeatherDisplay:10.37,2013-03-20 19:57:00,
2013-03-20 15:02:00,26.8,11.9,30.32,West,272,6.0,15.0,53,0.00,BKN,,0.00,415.8,WeatherDisplay:10.37,2013-03-20 20:02:00,
2013-03-20 15:08:00,26.7,12.3,30.31,WSW,246,5.7,10.0,54,0.00,BKN,,0.00,369.6,WeatherDisplay:10.37,2013-03-20 20:08:00,
2013-03-20 15:09:00,26.7,12.3,30.31,West,280,9.4,16.1,54,0.00,BKN,,0.00,369.6,WeatherDisplay:10.37,2013-03-20 20:09:00,
2013-03-20 15:13:00,26.7,12.3,30.31,West,280,9.4,16.1,54,0.00,BKN,,0.00,369.6,WeatherDisplay:10.37,2013-03-20 20:13:00,
2013-03-20 15:18:00,26.7,12.3,30.31,West,280,9.4,16.1,54,0.00,BKN,,0.00,369.6,WeatherDisplay:10.37,2013-03-20 20:18:00,
2013-03-20 15:23:00,26.0,12.0,30.31,West,262,7.8,13.0,55,0.00,BKN,,0.00,445.2,WeatherDisplay:10.37,2013-03-20 20:23:00,
2013-03-20 15:28:00,26.1,12.1,30.31,West,268,8.9,15.0,55,0.00,BKN,,0.00,317.8,WeatherDisplay:10.37,2013-03-20 20:28:00,
2013-03-20 15:34:00,26.6,13.0,30.31,NW,306,5.4,9.2,56,0.00,BKN,,0.00,256.2,WeatherDisplay:10.37,2013-03-20 20:34:00,
2013-03-20 15:39:00,26.9,12.9,30.30,WNW,299,7.9,15.0,55,0.00,BKN,,0.00,256.2,WeatherDisplay:10.37,2013-03-20 20:39:00,
2013-03-20 15:44:00,27.1,13.9,30.30,SW,234,5.8,11.5,57,0.00,BKN,,0.00,1068.2,WeatherDisplay:10.37,2013-03-20 20:44:00,
2013-03-20 15:49:00,27.5,13.4,30.30,WNW,298,5.6,11.5,55,0.00,BKN,,0.00,376.6,WeatherDisplay:10.37,2013-03-20 20:49:00,
2013-03-20 15:55:00,27.2,13.1,30.30,WSW,249,4.0,11.0,55,0.00,BKN,,0.00,330.4,WeatherDisplay:10.37,2013-03-20 20:55:00,
2013-03-20 16:00:00,26.3,11.5,30.29,WNW,298,11.3,16.1,53,0.00,BKN,,0.00,974.4,WeatherDisplay:10.37,2013-03-20 21:00:00,
2013-03-20 16:05:00,26.9,12.5,30.29,West,279,11.1,18.0,54,0.00,BKN,,0.00,240.8,WeatherDisplay:10.37,2013-03-20 21:05:00,
2013-03-20 16:10:00,26.5,12.5,30.29,West,278,6.9,14.0,55,0.00,BKN,,0.00,292.6,WeatherDisplay:10.37,2013-03-20 21:10:00,
2013-03-20 16:16:00,26.5,12.9,30.29,West,275,10.0,19.0,56,0.00,BKN,,0.00,350.0,WeatherDisplay:10.37,2013-03-20 21:16:00,
2013-03-20 16:21:00,26.9,13.3,30.29,SW,216,3.8,8.1,56,0.00,BKN,,0.00,278.6,WeatherDisplay:10.37,2013-03-20 21:21:00,
2013-03-20 16:26:00,27.5,13.4,30.29,WSW,248,10.3,18.4,55,0.00,BKN,,0.00,564.2,WeatherDisplay:10.37,2013-03-20 21:26:00,
2013-03-20 16:32:00,27.2,12.3,30.29,West,263,7.0,14.0,53,0.00,BKN,BKN,0.00,305.2,WeatherDisplay:10.37,2013-03-20 21:32:00,
2013-03-20 16:37:00,26.9,12.5,30.28,West,271,3.0,17.0,54,0.00,BKN,BKN,0.00,603.4,WeatherDisplay:10.37,2013-03-20 21:37:00,
2013-03-20 16:42:00,27.2,12.7,30.28,WSW,248,3.9,19.6,54,0.00,BKN,,0.00,327.6,WeatherDisplay:10.37,2013-03-20 21:42:00,
2013-03-20 16:47:00,27.5,13.0,30.28,NW,318,4.3,8.1,54,0.00,BKN,,0.00,197.4,WeatherDisplay:10.37,2013-03-20 21:47:00,
2013-03-20 16:52:00,27.4,12.5,30.28,WNW,296,3.6,5.8,53,0.00,BKN,,0.00,588.0,WeatherDisplay:10.37,2013-03-20 21:52:00,
2013-03-20 16:57:00,27.5,13.0,30.27,NNW,338,7.0,11.5,54,0.00,BKN,,0.00,561.4,WeatherDisplay:10.37,2013-03-20 21:57:00,
2013-03-20 17:03:00,27.7,12.3,30.27,West,268,2.4,15.0,52,0.00,BKN,,0.00,506.8,WeatherDisplay:10.37,2013-03-20 22:03:00,
2013-03-20 17:08:00,27.6,13.1,30.27,WSW,240,3.3,8.0,54,0.00,BKN,,0.00,140.0,WeatherDisplay:10.37,2013-03-20 22:08:00,
2013-03-20 17:13:00,27.2,12.3,30.27,WNW,299,7.6,11.5,53,0.00,BKN,,0.00,231.0,WeatherDisplay:10.37,2013-03-20 22:13:00,
2013-03-20 17:18:00,27.0,13.0,30.27,West,263,4.8,10.4,55,0.00,BKN,,0.00,462.0,WeatherDisplay:10.37,2013-03-20 22:18:00,
2013-03-20 17:23:00,27.7,13.2,30.27,WSW,254,7.4,13.0,54,0.00,BKN,,0.00,396.2,WeatherDisplay:10.37,2013-03-20 22:23:00,
2013-03-20 17:29:00,27.7,12.8,30.27,WNW,289,4.4,9.2,53,0.00,BKN,,0.00,130.2,WeatherDisplay:10.37,2013-03-20 22:29:00,
2013-03-20 17:58:00,26.8,13.2,30.27,West,278,6.8,14.0,56,0.00,BKN,,0.00,123.2,WeatherDisplay:10.37,2013-03-20 22:58:00,
2013-03-20 18:03:00,26.6,13.0,30.27,West,281,7.3,11.5,56,0.00,BKN,,0.00,78.4,WeatherDisplay:10.37,2013-03-20 23:03:00,
2013-03-20 18:08:00,26.5,12.9,30.27,NW,311,3.0,6.9,56,0.00,BKN,,0.00,65.8,WeatherDisplay:10.37,2013-03-20 23:08:00,
2013-03-20 18:13:00,26.4,12.8,30.27,West,275,6.1,16.1,56,0.00,BKN,,0.00,88.2,WeatherDisplay:10.37,2013-03-20 23:13:00,
2013-03-20 18:19:00,26.3,12.7,30.26,West,260,5.6,9.0,56,0.00,BKN,,0.00,91.0,WeatherDisplay:10.37,2013-03-20 23:19:00,
2013-03-20 18:24:00,26.6,13.4,30.26,WSW,251,5.3,13.8,57,0.00,BKN,,0.00,86.8,WeatherDisplay:10.37,2013-03-20 23:24:00,
2013-03-20 18:29:00,26.7,13.5,30.26,NW,310,4.6,8.1,57,0.00,BKN,,0.00,56.0,WeatherDisplay:10.37,2013-03-20 23:29:00,
2013-03-20 18:35:00,26.7,13.1,30.26,WNW,282,6.2,15.0,56,0.00,BKN,,0.00,65.8,WeatherDisplay:10.37,2013-03-20 23:35:00,
2013-03-20 18:40:00,26.8,13.6,30.26,WNW,288,3.6,5.0,57,0.00,BKN,,0.00,84.0,WeatherDisplay:10.37,2013-03-20 23:40:00,
2013-03-20 18:45:00,26.8,13.6,30.26,NW,305,10.1,15.0,57,0.00,BKN,,0.00,75.6,WeatherDisplay:10.37,2013-03-20 23:45:00,
2013-03-20 18:50:00,26.7,13.5,30.26,West,277,4.1,8.1,57,0.00,BKN,,0.00,44.8,WeatherDisplay:10.37,2013-03-20 23:50:00,
2013-03-20 18:56:00,26.7,13.5,30.26,WNW,303,1.6,6.0,57,0.00,BKN,,0.00,39.2,WeatherDisplay:10.37,2013-03-20 23:56:00,
2013-03-20 19:01:00,26.5,13.3,30.26,WNW,287,8.7,11.5,57,0.00,BKN,,0.00,25.2,WeatherDisplay:10.37,2013-03-21 00:01:00,
2013-03-20 19:06:00,26.3,13.1,30.26,West,264,3.7,10.4,57,0.00,BKN,,0.00,19.6,WeatherDisplay:10.37,2013-03-21 00:06:00,
2013-03-20 19:12:00,26.3,13.1,30.25,WNW,282,5.0,7.0,57,0.00,BKN,BKN,0.00,16.8,WeatherDisplay:10.37,2013-03-21 00:12:00,
2013-03-20 19:17:00,26.2,13.0,30.25,West,281,6.0,12.0,57,0.00,BKN,BKN,0.00,12.6,WeatherDisplay:10.37,2013-03-21 00:17:00,
2013-03-20 19:22:00,26.1,13.3,30.25,West,274,6.0,12.0,58,0.00,BKN,BKN,0.00,7.0,WeatherDisplay:10.37,2013-03-21 00:22:00,
2013-03-20 19:27:00,26.0,12.8,30.25,West,275,7.0,14.0,57,0.00,BKN,BKN,0.00,0.0,WeatherDisplay:10.37,2013-03-21 00:27:00,
2013-03-20 19:32:00,25.9,12.7,30.25,West,274,6.0,16.0,57,0.00,BKN,BKN,0.00,0.0,WeatherDisplay:10.37,2013-03-21 00:32:00,
2013-03-20 19:37:00,25.8,13.0,30.25,West,271,3.0,10.0,58,0.00,BKN,BKN,0.00,0.0,WeatherDisplay:10.37,2013-03-21 00:37:00,
2013-03-20 19:42:00,25.7,12.9,30.25,West,270,6.0,14.0,58,0.00,BKN,BKN,0.00,0.0,WeatherDisplay:10.37,2013-03-21 00:42:00,
2013-03-20 19:47:00,25.6,13.3,30.24,West,275,3.0,12.0,59,0.00,BKN,BKN,0.00,0.0,WeatherDisplay:10.37,2013-03-21 00:47:00,
2013-03-20 19:52:00,25.6,13.2,30.25,NW,304,5.9,11.5,59,0.00,BKN,,0.00,0.0,WeatherDisplay:10.37,2013-03-21 00:52:00,
2013-03-20 19:57:00,25.5,13.1,30.25,WNW,294,2.9,4.6,59,0.00,BKN,,0.00,0.0,WeatherDisplay:10.37,2013-03-21 00:57:00,
2013-03-20 20:02:00,25.5,13.5,30.25,West,269,4.2,6.9,60,0.00,BKN,,0.00,0.0,WeatherDisplay:10.37,2013-03-21 01:02:00,
2013-03-20 20:07:00,25.4,13.4,30.24,WNW,284,2.0,3.5,60,0.00,BKN,,0.00,0.0,WeatherDisplay:10.37,2013-03-21 01:07:00,
2013-03-20 20:13:00,25.2,13.2,30.24,West,260,3.4,5.8,60,0.00,BKN,,0.00,0.0,WeatherDisplay:10.37,2013-03-21 01:13:00,
2013-03-20 20:18:00,25.2,13.6,30.24,WNW,284,2.3,3.5,61,0.00,BKN,,0.00,0.0,WeatherDisplay:10.37,2013-03-21 01:18:00,
2013-03-20 20:23:00,25.1,13.5,30.24,WNW,302,2.1,4.6,61,0.00,BKN,,0.00,0.0,WeatherDisplay:10.37,2013-03-21 01:23:00,
2013-03-20 20:28:00,25.1,13.9,30.24,NNW,329,3.9,8.0,62,0.00,BKN,,0.00,0.0,WeatherDisplay:10.37,2013-03-21 01:28:00,
2013-03-20 20:34:00,25.0,14.2,30.24,West,277,1.4,4.0,63,0.00,BKN,,0.00,0.0,WeatherDisplay:10.37,2013-03-21 01:34:00,
2013-03-20 20:39:00,24.9,14.1,30.24,West,277,2.2,3.5,63,0.00,BKN,,0.00,0.0,WeatherDisplay:10.37,2013-03-21 01:39:00,
2013-03-20 20:44:00,24.8,14.0,30.24,West,275,2.6,8.1,63,0.00,BKN,,0.00,0.0,WeatherDisplay:10.37,2013-03-21 01:44:00,
2013-03-20 20:49:00,24.8,14.0,30.24,West,272,2.1,3.5,63,0.00,BKN,,0.00,0.0,WeatherDisplay:10.37,2013-03-21 01:49:00,
2013-03-20 20:55:00,24.7,14.2,30.24,NW,317,3.4,6.0,64,0.00,BKN,,0.00,0.0,WeatherDisplay:10.37,2013-03-21 01:55:00,
2013-03-20 21:00:00,24.5,14.1,30.24,West,273,3.2,6.0,64,0.00,BKN,,0.00,0.0,WeatherDisplay:10.37,2013-03-21 02:00:00,
2013-03-20 21:05:00,24.5,14.4,30.24,NW,325,1.1,3.5,65,0.00,BKN,,0.00,0.0,WeatherDisplay:10.37,2013-03-21 02:05:00,
2013-03-20 21:10:00,24.4,14.3,30.23,WNW,283,1.3,3.0,65,0.00,BKN,,0.00,0.0,WeatherDisplay:10.37,2013-03-21 02:10:00,
2013-03-20 21:16:00,24.3,14.2,30.23,West,273,0.3,3.5,65,0.00,BKN,,0.00,0.0,WeatherDisplay:10.37,2013-03-21 02:16:00,
2013-03-20 21:21:00,24.2,14.5,30.23,West,273,0.4,2.3,66,0.00,BKN,,0.00,0.0,WeatherDisplay:10.37,2013-03-21 02:21:00,
2013-03-20 21:27:00,24.0,14.3,30.23,West,273,0.6,2.0,66,0.00,BKN,,0.00,0.0,WeatherDisplay:10.37,2013-03-21 02:27:00,
2013-03-20 21:32:00,23.9,14.5,30.23,West,273,1.3,3.5,67,0.00,BKN,,0.00,0.0,WeatherDisplay:10.37,2013-03-21 02:32:00,
2013-03-20 21:37:00,23.7,14.7,30.23,West,277,1.0,4.0,68,0.00,BKN,BKN,0.00,0.0,WeatherDisplay:10.37,2013-03-21 02:37:00,
2013-03-20 21:42:00,23.6,14.6,30.23,West,265,2.0,5.8,68,0.00,BKN,,0.00,0.0,WeatherDisplay:10.37,2013-03-21 02:42:00,
2013-03-20 21:47:00,23.5,14.8,30.23,West,268,0.0,3.0,69,0.00,FEW,FEW,0.00,0.0,WeatherDisplay:10.37,2013-03-21 02:47:00,
2013-03-20 21:52:00,23.4,14.7,30.22,West,275,0.1,1.2,69,0.00,FEW,,0.00,0.0,WeatherDisplay:10.37,2013-03-21 02:52:00,
2013-03-20 21:57:00,23.2,14.5,30.22,West,275,0.0,0.0,69,0.00,FEW,,0.00,0.0,WeatherDisplay:10.37,2013-03-21 02:57:00,
2013-03-20 22:02:00,23.0,14.7,30.23,West,275,0.1,1.2,70,0.00,FEW,,0.00,0.0,WeatherDisplay:10.37,2013-03-21 03:02:00,
2013-03-20 22:08:00,22.9,14.6,30.23,West,275,0.0,0.0,70,0.00,FEW,,0.00,0.0,WeatherDisplay:10.37,2013-03-21 03:08:00,
2013-03-20 22:13:00,22.7,14.7,30.23,WNW,284,0.1,1.2,71,0.00,FEW,,0.00,0.0,WeatherDisplay:10.37,2013-03-21 03:13:00,
2013-03-20 22:18:00,22.6,14.6,30.23,WNW,284,0.0,0.0,71,0.00,FEW,,0.00,0.0,WeatherDisplay:10.37,2013-03-21 03:18:00,
2013-03-20 22:23:00,22.5,14.8,30.23,WNW,294,0.3,2.0,72,0.00,FEW,,0.00,0.0,WeatherDisplay:10.37,2013-03-21 03:23:00,
2013-03-20 22:28:00,22.5,14.8,30.23,NW,324,1.4,2.3,72,0.00,FEW,,0.00,0.0,WeatherDisplay:10.37,2013-03-21 03:28:00,
2013-03-20 22:34:00,22.4,14.7,30.23,NW,317,0.0,0.0,72,0.00,FEW,,0.00,0.0,WeatherDisplay:10.37,2013-03-21 03:34:00,
2013-03-20 22:39:00,22.5,14.8,30.23,WNW,287,0.0,0.0,72,0.00,FEW,,0.00,0.0,WeatherDisplay:10.37,2013-03-21 03:39:00,
2013-03-20 22:44:00,22.4,14.7,30.23,WNW,294,0.4,2.0,72,0.00,FEW,,0.00,0.0,WeatherDisplay:10.37,2013-03-21 03:44:00,
2013-03-20 22:49:00,22.4,14.7,30.23,NW,319,0.8,2.3,72,0.00,FEW,,0.00,0.0,WeatherDisplay:10.37,2013-03-21 03:49:00,
2013-03-20 22:55:00,22.4,14.7,30.23,NW,304,1.6,3.5,72,0.00,FEW,,0.00,0.0,WeatherDisplay:10.37,2013-03-21 03:55:00,
2013-03-20 23:00:00,22.4,14.7,30.23,WNW,287,0.7,2.3,72,0.00,FEW,,0.00,0.0,WeatherDisplay:10.37,2013-03-21 04:00:00,
2013-03-20 23:01:00,22.3,14.6,30.23,WNW,287,0.0,2.3,72,0.00,FEW,,0.00,0.0,WeatherDisplay:10.37,2013-03-21 04:01:00,
2013-03-20 23:06:00,22.3,14.6,30.23,NW,306,0.0,0.0,72,0.00,FEW,,0.00,0.0,WeatherDisplay:10.37,2013-03-21 04:06:00,
2013-03-20 23:11:00,22.2,14.5,30.22,NW,318,0.3,2.3,72,0.00,FEW,,0.00,0.0,WeatherDisplay:10.37,2013-03-21 04:11:00,
2013-03-20 23:16:00,22.1,14.4,30.23,WNW,301,0.5,3.0,72,0.00,FEW,,0.00,0.0,WeatherDisplay:10.37,2013-03-21 04:16:00,
2013-03-20 23:22:00,22.0,14.4,30.23,WNW,290,0.0,2.0,72,0.00,FEW,FEW,0.00,0.0,WeatherDisplay:10.37,2013-03-21 04:22:00,
2013-03-20 23:27:00,22.0,14.3,30.23,WNW,299,1.0,3.0,72,0.00,FEW,FEW,0.00,0.0,WeatherDisplay:10.37,2013-03-21 04:27:00,
2013-03-20 23:32:00,21.9,14.3,30.23,WNW,291,0.0,3.0,72,0.00,FEW,FEW,0.00,0.0,WeatherDisplay:10.37,2013-03-21 04:32:00,
2013-03-20 23:37:00,21.8,14.2,30.23,WNW,290,0.0,2.0,72,0.00,FEW,FEW,0.00,0.0,WeatherDisplay:10.37,2013-03-21 04:37:00,
2013-03-20 23:42:00,21.7,14.4,30.23,NW,309,1.0,4.0,73,0.00,FEW,FEW,0.00,0.0,WeatherDisplay:10.37,2013-03-21 04:42:00,
2013-03-20 23:47:00,21.6,14.3,30.23,NNW,327,0.0,2.0,73,0.00,FEW,FEW,0.00,0.0,WeatherDisplay:10.37,2013-03-21 04:47:00,
2013-03-20 23:52:00,21.6,14.3,30.23,NNW,340,1.0,2.0,73,0.00,FEW,FEW,0.00,0.0,WeatherDisplay:10.37,2013-03-21 04:52:00,
2013-03-20 23:57:00,21.5,14.2,30.23,NNW,340,1.0,3.0,73,0.00,FEW,FEW,0.00,0.0,WeatherDisplay:10.37,2013-03-21 04:57:00,